This is the latest recevied weather packets stored in our database for station/object KC3BHK-2. If no packets are shown the sender has not sent any weather packets the latest 10 day(s).
| Time | Temp. | Humidity | Pressure | Rain* | Wind** | Luminosity | Snow |
|---|---|---|---|---|---|---|---|
| 1777762728 | 12.78° C | - | - | 0 mm | 0.45 m/s, 46° | - | - |
| 1777762424 | 12.78° C | - | - | 0 mm | 0.45 m/s, 269° | - | - |
| 1777762116 | 12.78° C | - | - | 0 mm | 1.34 m/s, 11° | - | - |
| 1777761812 | 13.33° C | - | - | 0 mm | 0 m/s | - | - |
| 1777761506 | 13.33° C | - | - | 0 mm | 1.79 m/s, 305° | - | - |
| 1777761202 | 12.22° C | - | - | 0 mm | 0.45 m/s, 338° | - | - |
| 1777760897 | 12.78° C | - | - | 0 mm | 0 m/s | - | - |
| 1777760592 | 13.33° C | - | - | 0 mm | 0.89 m/s, 288° | - | - |
| 1777760285 | 14.44° C | - | - | 0 mm | 0.45 m/s, 302° | - | - |
| 1777759980 | 13.89° C | - | - | 0 mm | 0 m/s | - | - |
| 1777759676 | 14.44° C | - | - | 0 mm | 0.89 m/s, 31° | - | - |
| 1777759371 | 13.89° C | - | - | 0 mm | 0.45 m/s, 357° | - | - |
| 1777759066 | 15° C | - | - | 0 mm | 1.34 m/s, 345° | - | - |
| 1777758454 | 13.89° C | - | - | 0 mm | 2.68 m/s, 316° | - | - |
| 1777758149 | 12.78° C | - | - | 0 mm | 0.89 m/s, 328° | - | - |
| 1777757845 | 13.33° C | - | - | 0 mm | 1.34 m/s, 302° | - | - |
| 1777757540 | 13.89° C | - | - | 0 mm | 2.24 m/s, 305° | - | - |
| 1777756930 | 14.44° C | - | - | 0 mm | 0.45 m/s, 290° | - | - |
| 1777756623 | 15° C | - | - | 0 mm | 0.89 m/s, 346° | - | - |
| 1777756318 | 15° C | - | - | 0 mm | 4.02 m/s, 284° | - | - |
| 1777755708 | 13.33° C | - | - | 0 mm | 0.89 m/s, 53° | - | - |
| 1777755403 | 14.44° C | - | - | 0 mm | 0.89 m/s, 27° | - | - |
| 1777755099 | 13.89° C | - | - | 0 mm | 0.89 m/s, 329° | - | - |
| 1777754791 | 15° C | - | - | 0 mm | 0.45 m/s, 249° | - | - |
| 1777754487 | 14.44° C | - | - | 0 mm | 1.34 m/s, 4° | - | - |
* Rain latest hour (hover to see other rain measurements)
** Current wind speed in m/s (hover to see current wind gust speed)